TimeSAST,TemperatureF,Dew PointF,Humidity,Sea Level PressureIn,VisibilityMPH,Wind Direction,Wind SpeedMPH,Gust SpeedMPH,PrecipitationIn,Events,Conditions,WindDirDegrees,DateUTC
12:00 AM,68.0,3.2,8,30.09,-9999.0,NNE,3.5,-,N/A,,Unknown,20,2012-11-27 22:00:00
1:00 AM,66.2,1.4,8,30.09,-9999.0,NNW,1.2,-,N/A,,Clear,340,2012-11-27 23:00:00
2:00 AM,62,0,4,,25,NE,5.8,,,,,40,2012-11-28 00:00:00
2:00 AM,60.8,1.4,9,30.06,-9999.0,NE,4.6,-,N/A,,Clear,40,2012-11-28 00:00:00
5:00 AM,57,6,5,,25,SE,2.3,,,,,130,2012-11-28 03:00:00
5:38 AM,59.0,1.4,10,30.09,-9999.0,WNW,6.9,-,N/A,,Clear,290,2012-11-28 03:38:00
6:00 AM,59.0,1.4,10,30.06,-9999.0,NW,5.8,-,N/A,,Clear,310,2012-11-28 04:00:00
6:04 AM,64.4,3.2,9,30.09,-9999.0,NNW,6.9,-,N/A,,Clear,330,2012-11-28 04:04:00
6:16 AM,68.0,3.2,8,30.09,-9999.0,North,6.9,-,N/A,,Clear,360,2012-11-28 04:16:00
6:32 AM,73.4,3.2,6,30.09,-9999.0,North,6.9,-,N/A,,Clear,350,2012-11-28 04:32:00
7:00 AM,77.0,6.8,7,30.09,-9999.0,North,5.8,-,N/A,,Clear,10,2012-11-28 05:00:00
7:01 AM,80.6,8.6,6,30.09,-9999.0,North,5.8,-,N/A,,Clear,350,2012-11-28 05:01:00
7:18 AM,84.2,21.2,10,30.09,-9999.0,North,6.9,-,N/A,,Clear,350,2012-11-28 05:18:00
7:41 AM,87.8,24.8,10,30.09,-9999.0,NNW,12.7,-,N/A,,Clear,330,2012-11-28 05:41:00
8:00 AM,89,24,4,,25,NNW,16.1,,,,Clear,330,2012-11-28 06:00:00
8:00 AM,87.8,24.8,10,30.09,-9999.0,NNW,15.0,-,N/A,,Clear,330,2012-11-28 06:00:00
9:00 AM,89.6,24.8,10,30.09,-9999.0,NW,18.4,-,N/A,,Clear,320,2012-11-28 07:00:00
10:00 AM,91.4,26.6,10,30.09,-9999.0,NNW,17.3,-,N/A,,Clear,330,2012-11-28 08:00:00
11:00 AM,94,28,4,,25,NW,17.3,,,,Clear,320,2012-11-28 09:00:00
11:00 AM,93.2,28.4,10,30.09,-9999.0,NW,16.1,-,N/A,,Clear,320,2012-11-28 09:00:00
12:00 PM,96.8,30.2,10,30.06,-9999.0,WNW,12.7,-,N/A,,Clear,300,2012-11-28 10:00:00
1:00 PM,96.8,24.8,8,30.04,6.2,NW,15.0,-,N/A,,Partly Cloudy,310,2012-11-28 11:00:00
2:00 PM,99,22,4,,25,West,6.9,,,,Scattered Clouds,260,2012-11-28 12:00:00
2:00 PM,98.6,23.0,7,30.01,6.2,West,6.9,-,N/A,,Partly Cloudy,260,2012-11-28 12:00:00
3:00 PM,100.4,23.0,6,29.98,6.2,West,8.1,21.9,N/A,,Partly Cloudy,260,2012-11-28 13:00:00
4:00 PM,98.6,23.0,7,29.95,6.2,West,12.7,25.3,N/A,,Partly Cloudy,270,2012-11-28 14:00:00
5:00 PM,100.4,24.8,7,29.92,6.2,West,8.1,-,N/A,,Partly Cloudy,260,2012-11-28 15:00:00
6:00 PM,96.8,24.8,8,29.92,6.2,WSW,4.6,-,N/A,,Scattered Clouds,240,2012-11-28 16:00:00
7:00 PM,93.2,24.8,9,29.92,6.2,SW,6.9,-,N/A,,Scattered Clouds,220,2012-11-28 17:00:00
8:00 PM,92,23,4,,25,WSW,4.6,,,,Partly Cloudy,250,2012-11-28 18:00:00
8:00 PM,91.4,23.0,8,29.95,6.2,WSW,3.5,-,N/A,,Scattered Clouds,250,2012-11-28 18:00:00
9:00 PM,87.8,26.6,11,29.95,-9999.0,ESE,3.5,-,N/A,,Unknown,110,2012-11-28 19:00:00
10:00 PM,84.2,26.6,12,29.95,-9999.0,SSW,4.6,-,N/A,,Unknown,210,2012-11-28 20:00:00
11:00 PM,83,26,6,,,NNE,3.5,,,,,30,2012-11-28 21:00:00
11:00 PM,82.4,26.6,13,29.95,-9999.0,NNE,2.3,-,N/A,,Unknown,30,2012-11-28 21:00:00